Location: Home
(42.5358°N, 72.7383°W)
Time: 14:40:00
(UTC-05:00)

Vanguard 3 - Pass Details

Date: 08 December 2021
Orbit: 508 x 3260 km, 33.3° (Epoch: 20 January)

Event Time Altitude Azimuth Distance (km) Brightness Sun altitude
Rises 04:55:53 0° 263° (W) 7,045 - -23.6°
Reaches altitude 10° 05:00:31 10° 260° (W) 6,145 - -22.7°
Exits shadow 05:05:09 21° 257° (WSW) 5,264 10.7 -21.9°
Maximum altitude 05:20:02 62° 187° (S) 3,269 10.1 -19.2°
Drops below altitude 10° 05:34:54 10° 111° (ESE) 4,832 12.4 -16.6°
Sets 05:38:03 0° 108° (ESE) 5,528 13.3 -16.0°
